Weather History for Kendall, FL

Change the Weather History Date:

Sunday, December 23, 2012

  Actual Average Record
Temperature  
Mean Temperature 58 °F -  
Max Temperature 73 °F 78 °F 84 °F (2006)
Min Temperature 44 °F 57 °F 44 °F (2012)
Degree Days  
Heating Degree Days 6    
Growing Degree Days 8 (Base 50)    
Moisture  
Dew Point 46 °F    
Average Humidity 63    
Maximum Humidity 93    
Minimum Humidity 42    
Precipitation  
Precipitation 0.00 in - - ()
Sea Level Pressure  
Sea Level Pressure 30.19 in    
Wind  
Wind Speed 4 mph (NE)    
Max Wind Speed 13 mph    
Max Gust Speed 17 mph    
Visibility 10 miles    
Events      
Averages and records for this station are not official NWS values.
T = Trace of Precipitation, MM = Missing Value Source: NWS Daily Summary

Daily Weather History Graph

Daily Weather History Graph

Search for Another Location

Airport:

Trip Planner

Search our weather history database for the weather conditions in past years. The results will help you decide how hot, cold, wet, or windy it might be!

Date:

Astronomy

Dec. 23, 2012 Rise Set
Actual Time 7:04 AM EST 5:37 PM EST
Civil Twilight 6:39 AM EST 6:02 PM EST
Nautical Twilight 6:11 AM EST 6:31 PM EST
Astronomical Twilight 5:42 AM EST 6:59 PM EST
Moon 2:16 PM EST (12/23) 2:58 AM EST (12/23)
Length of Visible Light 11h 22m
Length of Day
10h 32m
Waxing Gibbous, 81% of the Moon is Illuminated
Dec 23
Waxing Gibbous
Dec 28
Full
Jan 4
Last Quarter
Jan 11
New
Jan 18
First Quarter

Hourly Weather History & Observations

Time (EST) Temp. Windchill Dew Point Humidity Pressure Visibility Wind Dir Wind Speed Gust Speed Precip Events Conditions
12:53 AM 46.9 °F - 36.0 °F 66% 30.23 in 10.0 mi NNW 4.6 mph - N/A   Clear
1:53 AM 50.0 °F - 37.0 °F 61% 30.22 in 10.0 mi Calm Calm - N/A   Clear
2:53 AM 44.1 °F 42.5 °F 37.9 °F 79% 30.21 in 10.0 mi NNW 3.5 mph - N/A   Clear
3:53 AM 46.9 °F - 37.0 °F 68% 30.19 in 10.0 mi North 3.5 mph - N/A   Clear
4:53 AM 50.0 °F - 36.0 °F 59% 30.19 in 10.0 mi NNE 5.8 mph - N/A   Clear
5:53 AM 48.0 °F - 36.0 °F 63% 30.21 in 10.0 mi NNW 6.9 mph - N/A   Clear
6:53 AM 50.0 °F - 37.9 °F 63% 30.21 in 10.0 mi North 4.6 mph - N/A   Clear
7:53 AM 52.0 °F - 42.1 °F 69% 30.22 in 10.0 mi North 3.5 mph - N/A   Clear
8:53 AM 57.9 °F - 42.1 °F 56% 30.24 in 10.0 mi NNE 6.9 mph - N/A   Clear
9:53 AM 64.0 °F - 44.1 °F 48% 30.25 in 10.0 mi North 4.6 mph - N/A   Clear
10:53 AM 68.0 °F - 48.0 °F 49% 30.24 in 10.0 mi NE 6.9 mph - N/A   Clear
11:53 AM 73.4 °F - 53.6 °F 50% 30.21 in 10.0 mi East 11.5 mph - N/A   Partly Cloudy
12:53 PM 73.0 °F - 48.9 °F 42% 30.18 in 10.0 mi East 12.7 mph - N/A   Clear
1:53 PM 72.0 °F - 50.0 °F 46% 30.16 in 10.0 mi East 10.4 mph 17.3 mph N/A   Partly Cloudy
2:53 PM 72.0 °F - 50.0 °F 46% 30.16 in 10.0 mi East 11.5 mph - N/A   Clear
3:53 PM 70.0 °F - 50.0 °F 49% 30.15 in 10.0 mi ESE 6.9 mph - N/A   Clear
4:53 PM 69.1 °F - 50.0 °F 51% 30.16 in 10.0 mi East 5.8 mph - N/A   Clear
5:53 PM 66.0 °F - 51.1 °F 59% 30.15 in 10.0 mi Calm Calm - N/A   Clear
6:53 PM 61.0 °F - 51.1 °F 70% 30.16 in 10.0 mi Calm Calm - N/A   Partly Cloudy
7:53 PM 59.0 °F - 52.0 °F 78% 30.17 in 10.0 mi Calm Calm - N/A   Partly Cloudy
8:53 PM 57.9 °F - 52.0 °F 81% 30.17 in 10.0 mi Calm Calm - N/A   Partly Cloudy
9:53 PM 55.9 °F - 51.1 °F 84% 30.17 in 10.0 mi Calm Calm - N/A   Partly Cloudy
10:53 PM 53.1 °F - 51.1 °F 93% 30.17 in 10.0 mi Calm Calm - N/A   Clear
11:53 PM 55.9 °F - 53.1 °F 90% 30.14 in 10.0 mi Calm Calm - N/A   Clear